Location: Newark
(45.5167°N, 11.1667°E)
Time: 19:30:38
(UTC+00:00)

Explorer 7 - Pass Details

Date: 21 December 2019
Orbit: 485 x 679 km, 50.3° (Epoch: 19 January)

Event Time Altitude Azimuth Distance (km) Brightness Sun altitude
Rises 15:44:15 0° 294° (WNW) 3,000 11.1 -2.3°
Reaches altitude 10° 15:46:36 10° 296° (WNW) 2,101 10.3 -2.6°
Maximum altitude 15:51:29 77° 22° (NNE) 700 7.3 -3.4°
Drops below altitude 10° 15:56:24 10° 109° (ESE) 2,110 9.4 -4.1°
Sets 15:58:46 0° 111° (ESE) 3,013 10.2 -4.5°
